STARLINK-33619, 63324

Orbit data source: Space-Track

STARLINK-33619, 63324 is a payload satellite owned by SpaceX/Seattle (US) in LEO that was launched on Tue, 18 Mar 2025 UTC via an FALCON 9 launch vehicle from the Air Force Eastern Test Range (AFETR). Payload-class satellites include a variety of spacecraft equipped with specific instruments for various scientific and technological missions. These include communications satellites like Starlink; space stations such as the ISS; scientific satellites like the Hubble; Earth observation satellites from companies like Planet Labs, Umbra, and HawkEye 360; GPS; miniature CubeSats for education and research; and military/defense satellites.

Loading next visibility...
Identifier
63324, 2025-057T
Orbit
LEO
Last TLE update
2 days ago
Origin
Manufacturer
SpaceX/Seattle
Mission
Operational spacecraft
Bus & Motor
STARLINK V2MO, Unknown motor
Mass
575 kg wet, ~530 kg dry
Launch date (UTC)
2025-03-18 (1 month ago)
Launch vehicle
FALCON 9
Launch site
Air Force Eastern Test Range (AFETR)
Object type
Payload
Rocket body
Debris
Shape & HBR
Unknown
Radar Cross Section
Large (>1 m²)

Expand to show TLE details & history

TLE from 2 days ago
0 STARLINK-33619
1 63324U 25057T   25118.91668981 -.00067993  00000-0 -24183-2 0  9998
2 63324  42.9998   8.0843 0001551 277.0149  26.1661 15.28454170  5932
Epoch: 2025-04-28T22:00Z
Definitive object data (Epoch: 2025-04-28T22:00:01.999Z)
Latitude
-34.97722°
Longitude
132.69766°
Altitude
489.468 km
Speed
7.621 km/s
True Right ascension
21h 19m 19s
True Declination
-34° 48' 34"
Sunlit
Object was in daylight at TLE epoch
Visualization TLE readout
Latitude
40.7819°
Longitude
-120.76503°
Altitude
484.583 km
Speed
7.628 km/s
Apparent Right ascension
05h 17m 18s
Apparent Declination
2° 16' 16"
Sunlit
Object is in daylight
Visualization observer readout
Local Sidereal Time
18:12:25
Azimuth
20.024° NNE
Elevation
-45.963°
Doppler factor
1
Orbital elements
Apogee altitude
483.443 km
Perigee altitude
481.315 km
Semi-major axis
6,860.516 km
Eccentricity
0.0001551
Inclination
42.9998°
RAAN
8.0843°
Arg. of periapsis
277.0149°
True anomaly
26.17394°
Mean anomaly
26.1661°
Eccentric anomaly
26.17002°
Mean motion
3.81951 °/min
BSTAR
-0.0024183
Orbital period
94.25 mins
Loading maneuver chart data...
Loading SW <> Apogee altitude chart data...
Loading historical data...
Loading historical data...
Loading historical data...
Loading historical data...
Loading historical data...
Loading historical data...
Loading historical data...

STARLINK-33619 Visibility forecast

Observer location: undefined°, undefined°

Span
Click to sort rows by Start time (UTC) header in descending order
Start Az.
Max El. time (UTC)
Max El. Az.
Max El.
End time (UTC)
End Az.
5 mins2025-04-30 19:59:23.313Z231.928° WSW2025-04-30 20:01:23.313Z129.908° SE42.02°2025-04-30 20:04:23.313Z75.645° E
5 mins2025-04-30 21:38:23.313Z288.096° WNW2025-04-30 21:40:23.313Z11.135° NNE38.515°2025-04-30 21:43:23.313Z71.413° E
5 mins2025-04-30 23:17:23.313Z296.174° NW2025-04-30 23:19:23.313Z20.081° NNE42.366°2025-04-30 23:22:23.313Z93.971° ESE
5 mins2025-05-01 00:56:23.313Z262.273° W2025-05-01 00:58:23.313Z198.296° SSW31.744°2025-05-01 01:01:23.313Z141.002° SSE
|